This is the latest recevied weather packets stored in our database for station/object K5RWS. If no packets are shown the sender has not sent any weather packets the latest 10 day(s).
| Time | Temp. | Humidity | Pressure | Rain* | Wind** | Luminosity | Snow |
|---|---|---|---|---|---|---|---|
| 1777861679 | 19.44° C | 38% | 1016.4 hPa | 0 mm | - | 0 W/m² | - |
| 1777861375 | 19.44° C | 38% | 1016.4 hPa | 0 mm | - | 0 W/m² | - |
| 1777861072 | 19.44° C | 37% | 1016.3 hPa | 0 mm | - | 0 W/m² | - |
| 1777860770 | 20° C | 36% | 1016.3 hPa | 0 mm | - | 0 W/m² | - |
| 1777860467 | 20° C | 34% | 1016.1 hPa | 0 mm | - | 0 W/m² | - |
| 1777860164 | 20° C | 31% | 1016.3 hPa | 0 mm | - | 1 W/m² | - |
| 1777859859 | 20° C | 31% | 1016.1 hPa | 0 mm | - | 2 W/m² | - |
| 1777859556 | 20° C | 30% | 1016.2 hPa | 0 mm | - | 4 W/m² | - |
| 1777859251 | 20.56° C | 30% | 1016.2 hPa | 0 mm | - | 6 W/m² | - |
| 1777858948 | 20.56° C | 29% | 1016.2 hPa | 0 mm | - | 8 W/m² | - |
| 1777858646 | 20° C | 29% | 1016.1 hPa | 0 mm | - | 10 W/m² | - |
| 1777858344 | 20.56° C | 29% | 1016.1 hPa | 0 mm | - | 12 W/m² | - |
| 1777858040 | 20.56° C | 28% | 1016.1 hPa | 0 mm | - | 15 W/m² | - |
| 1777857738 | 20.56° C | 28% | 1016.1 hPa | 0 mm | - | 17 W/m² | - |
| 1777857434 | 20.56° C | 27% | 1016.2 hPa | 0 mm | - | 19 W/m² | - |
| 1777857131 | 21.11° C | 27% | 1016.2 hPa | 0 mm | - | 21 W/m² | - |
| 1777856827 | 21.11° C | 25% | 1016 hPa | 0 mm | - | 24 W/m² | - |
| 1777856523 | 21.11° C | 25% | 1016.2 hPa | 0 mm | - | 27 W/m² | - |
| 1777856220 | 21.67° C | 25% | 1016 hPa | 0 mm | - | 32 W/m² | - |
| 1777855917 | 21.67° C | 24% | 1016 hPa | 0 mm | - | 41 W/m² | - |
| 1777855615 | 21.67° C | 24% | 1016.2 hPa | 0 mm | - | 46 W/m² | - |
| 1777855311 | 22.22° C | 23% | 1016.2 hPa | 0 mm | - | 48 W/m² | - |
| 1777855008 | 21.67° C | 22% | 1016.1 hPa | 0 mm | - | 47 W/m² | - |
| 1777854705 | 22.22° C | 22% | 1016.1 hPa | 0 mm | - | 59 W/m² | - |
| 1777854401 | 21.67° C | 22% | 1016.2 hPa | 0 mm | - | 75 W/m² | - |
* Rain latest hour (hover to see other rain measurements)
** Current wind speed in m/s (hover to see current wind gust speed)